カタログに戻る

STARLINK-30613

運用中通信VLEO
NORAD 58077·PAYLOAD·🇺🇸 United States

打ち上げ Oct 18, 2023 から Cape Canaveral Space Force Station

Loading…

次のパス (今後24時間)

TLE

最新Source: CelesTrak SupGP

元期: Sep 15, 2026, 02:56 UTC

1 58077C 23160C   26258.12270833  .00001253  00000+0  45365-4 0  2583
2 58077  42.9997  87.9948 0001439 272.0257 248.3278 15.27583204    18

AllMySatでSTARLINK-30613をリアルタイム追跡

Download on the App Store